Location: Home
(42.5358°N, 72.7383°W)
Time: 22:27:58
(UTC-05:00)

Vanguard 1 Rocket - Pass Details

Date: 06 December 2021
Orbit: 651 x 4225 km, 34.3° (Epoch: 26 January)

Event Time Altitude Azimuth Distance (km) Brightness Sun altitude
Exits shadow 05:45:20 14° 268° (W) 4,714 10.4 -14.4°
Maximum altitude 05:59:26 57° 196° (SSW) 3,824 10.5 -12.0°
Drops below altitude 10° 06:23:48 10° 127° (SE) 7,425 13.6 -7.8°
Sets 06:29:50 0° 123° (ESE) 8,418 14.6 -6.8°
